Location: Maccacari
(45.1333°N, 11.1333°E)
Time: 01:07:32
(UTC+00:00)

A-11 Canister half - Pass Details

Date: 24 January 2021
Orbit: 1525 x 1684 km, 47.3° (Epoch: 07 March)

Event Time Altitude Azimuth Distance (km) Brightness Sun altitude
Rises 20:41:33 0° 293° (WNW) 4,782 12.3 -46.9°
Reaches altitude 10° 20:44:55 10° 286° (WNW) 3,817 11.6 -47.4°
Enters shadow 20:51:14 33° 249° (WSW) 2,502 10.2 -48.4°
Maximum altitude 20:53:25 36° 224° (SW) 2,388 - -48.8°
Drops below altitude 10° 21:02:09 10° 163° (SSE) 3,908 - -50.1°
Sets 21:05:40 0° 155° (SSE) 4,907 - -50.7°
